Time,TemperatureF,DewpointF,PressureIn,WindDirection,WindDirectionDegrees,WindSpeedMPH,WindSpeedGustMPH,Humidity,HourlyPrecipIn,Conditions,Clouds,dailyrainin,SoftwareType,DateUTC
2013-03-05 00:01:00,43.3,27.0,30.44,East,79,0.0,2.0,54,0.00,,,0.00,weatherlink.com 1.10,2013-03-05 05:01:00,
2013-03-05 00:16:00,44.2,27.0,30.44,West,266,4.0,5.0,52,0.00,,,0.00,weatherlink.com 1.10,2013-03-05 05:16:00,
2013-03-05 00:31:00,44.2,28.0,30.44,SW,225,2.0,3.0,53,0.00,,,0.00,weatherlink.com 1.10,2013-03-05 05:31:00,
2013-03-05 00:46:00,43.0,27.0,30.45,WSW,242,0.0,1.0,54,0.00,,,0.00,weatherlink.com 1.10,2013-03-05 05:46:00,
2013-03-05 01:01:00,42.9,28.0,30.43,WSW,250,7.0,7.0,55,0.00,,,0.00,weatherlink.com 1.10,2013-03-05 06:01:00,
2013-03-05 01:16:00,44.7,28.0,30.43,SW,232,3.0,8.0,52,0.00,,,0.00,weatherlink.com 1.10,2013-03-05 06:16:00,
2013-03-05 01:31:00,44.5,28.0,30.42,WSW,242,3.0,5.0,53,0.00,,,0.00,weatherlink.com 1.10,2013-03-05 06:31:00,
2013-03-05 01:46:00,44.6,29.0,30.41,WSW,254,2.0,6.0,54,0.00,,,0.00,weatherlink.com 1.10,2013-03-05 06:46:00,
2013-03-05 02:01:00,43.5,29.0,30.40,WSW,246,0.0,2.0,56,0.00,,,0.00,weatherlink.com 1.10,2013-03-05 07:01:00,
2013-03-05 02:16:00,43.1,29.0,30.40,WSW,245,0.0,2.0,58,0.00,,,0.00,weatherlink.com 1.10,2013-03-05 07:16:00,
2013-03-05 02:31:00,43.9,30.0,30.38,WSW,239,0.0,2.0,58,0.00,,,0.00,weatherlink.com 1.10,2013-03-05 07:31:00,
2013-03-05 02:46:00,44.4,30.0,30.38,WSW,255,0.0,3.0,57,0.00,,,0.00,weatherlink.com 1.10,2013-03-05 07:46:00,
2013-03-05 03:02:00,43.9,30.0,30.37,ENE,72,1.0,1.0,58,0.00,,,0.00,weatherlink.com 1.10,2013-03-05 08:02:00,
2013-03-05 03:17:00,43.7,30.0,30.37,ENE,68,0.0,1.0,60,0.00,,,0.00,weatherlink.com 1.10,2013-03-05 08:17:00,
2013-03-05 03:32:00,44.7,30.0,30.36,NE,53,2.0,3.0,57,0.00,,,0.00,weatherlink.com 1.10,2013-03-05 08:32:00,
2013-03-05 03:47:00,44.4,31.0,30.35,NE,53,0.0,2.0,60,0.00,,,0.00,weatherlink.com 1.10,2013-03-05 08:47:00,
2013-03-05 04:02:00,44.7,32.0,30.35,NE,56,2.0,3.0,61,0.00,,,0.00,weatherlink.com 1.10,2013-03-05 09:02:00,
2013-03-05 04:17:00,44.4,32.0,30.34,NE,53,1.0,2.0,63,0.00,,,0.00,weatherlink.com 1.10,2013-03-05 09:17:00,
2013-03-05 04:32:00,44.5,32.0,30.34,ENE,57,1.0,1.0,63,0.00,,,0.00,weatherlink.com 1.10,2013-03-05 09:32:00,
2013-03-05 04:47:00,44.6,35.0,30.34,ENE,57,0.0,2.0,69,0.00,,,0.00,weatherlink.com 1.10,2013-03-05 09:47:00,
2013-03-05 05:02:00,44.7,37.0,30.34,ENE,57,1.0,2.0,74,0.00,,,0.00,weatherlink.com 1.10,2013-03-05 10:02:00,
2013-03-05 05:17:00,44.5,38.0,30.33,ENE,68,1.0,1.0,77,0.00,,,0.00,weatherlink.com 1.10,2013-03-05 10:17:00,
2013-03-05 05:32:00,44.1,38.0,30.32,NE,51,1.0,2.0,80,0.00,,,0.00,weatherlink.com 1.10,2013-03-05 10:32:00,
2013-03-05 05:47:00,44.0,39.0,30.33,NE,54,0.0,1.0,83,0.02,,,0.02,weatherlink.com 1.10,2013-03-05 10:47:00,
2013-03-05 06:02:00,43.2,40.0,30.32,NE,54,0.0,0.0,88,0.03,,,0.03,weatherlink.com 1.10,2013-03-05 11:02:00,
2013-03-05 06:17:00,42.9,41.0,30.32,NE,53,1.0,2.0,91,0.03,,,0.03,weatherlink.com 1.10,2013-03-05 11:17:00,
2013-03-05 06:32:00,42.8,41.0,30.32,NE,53,2.0,3.0,92,0.03,,,0.03,weatherlink.com 1.10,2013-03-05 11:32:00,
2013-03-05 06:47:00,42.7,41.0,30.31,NE,53,0.0,3.0,92,0.03,,,0.05,weatherlink.com 1.10,2013-03-05 11:47:00,
2013-03-05 07:02:00,42.8,41.0,30.30,NE,53,1.0,1.0,93,0.07,,,0.10,weatherlink.com 1.10,2013-03-05 12:02:00,
2013-03-05 07:17:00,42.6,41.0,30.30,ENE,71,0.0,1.0,93,0.07,,,0.10,weatherlink.com 1.10,2013-03-05 12:17:00,
2013-03-05 07:32:00,42.5,41.0,30.30,NE,51,1.0,3.0,94,0.18,,,0.21,weatherlink.com 1.10,2013-03-05 12:32:00,
2013-03-05 07:47:00,42.7,41.0,30.30,NE,53,0.0,1.0,95,0.20,,,0.25,weatherlink.com 1.10,2013-03-05 12:47:00,
2013-03-05 08:02:00,44.0,43.0,30.30,West,260,3.0,4.0,95,0.15,,,0.25,weatherlink.com 1.10,2013-03-05 13:02:00,
2013-03-05 08:17:00,44.0,42.0,30.30,SW,233,3.0,3.0,94,0.15,,,0.25,weatherlink.com 1.10,2013-03-05 13:17:00,
2013-03-05 08:33:00,44.4,43.0,30.30,WSW,257,1.0,3.0,95,0.04,,,0.25,weatherlink.com 1.10,2013-03-05 13:33:00,
2013-03-05 08:47:00,44.6,43.0,30.30,SW,231,2.0,2.0,95,0.00,,,0.25,weatherlink.com 1.10,2013-03-05 13:47:00,
2013-03-05 09:02:00,44.8,44.0,30.29,SW,225,3.0,4.0,95,0.00,,,0.25,weatherlink.com 1.10,2013-03-05 14:02:00,
2013-03-05 09:17:00,44.7,43.0,30.28,WSW,256,3.0,4.0,95,0.00,,,0.25,weatherlink.com 1.10,2013-03-05 14:17:00,
2013-03-05 09:32:00,44.9,44.0,30.27,SW,233,4.0,5.0,96,0.01,,,0.26,weatherlink.com 1.10,2013-03-05 14:32:00,
2013-03-05 09:47:00,45.2,44.0,30.26,SW,226,3.0,4.0,96,0.01,,,0.26,weatherlink.com 1.10,2013-03-05 14:47:00,
2013-03-05 10:02:00,45.6,45.0,30.26,SSW,200,2.0,5.0,96,0.01,,,0.26,weatherlink.com 1.10,2013-03-05 15:02:00,
2013-03-05 10:17:00,45.9,45.0,30.25,SW,221,2.0,7.0,97,0.01,,,0.26,weatherlink.com 1.10,2013-03-05 15:17:00,
2013-03-05 10:32:00,46.2,45.0,30.25,WSW,249,3.0,8.0,97,0.00,,,0.26,weatherlink.com 1.10,2013-03-05 15:32:00,
2013-03-05 10:47:00,46.1,45.0,30.24,West,260,4.0,5.0,97,0.00,,,0.26,weatherlink.com 1.10,2013-03-05 15:47:00,
2013-03-05 11:03:00,46.4,46.0,30.23,WSW,257,3.0,6.0,97,0.00,,,0.26,weatherlink.com 1.10,2013-03-05 16:03:00,
2013-03-05 11:18:00,46.8,46.0,30.22,SW,231,3.0,5.0,97,0.00,,,0.26,weatherlink.com 1.10,2013-03-05 16:18:00,
2013-03-05 11:33:00,47.2,46.0,30.20,NE,55,0.0,2.0,97,0.00,,,0.26,weatherlink.com 1.10,2013-03-05 16:33:00,
2013-03-05 11:48:00,47.5,47.0,30.20,NE,43,3.0,3.0,96,0.00,,,0.26,weatherlink.com 1.10,2013-03-05 16:48:00,
2013-03-05 12:03:00,47.3,46.0,30.20,NE,43,1.0,1.0,96,0.00,,,0.26,weatherlink.com 1.10,2013-03-05 17:03:00,
2013-03-05 12:18:00,47.3,46.0,30.19,ENE,60,0.0,1.0,96,0.00,,,0.26,weatherlink.com 1.10,2013-03-05 17:18:00,
2013-03-05 12:33:00,48.4,48.0,30.18,SW,229,3.0,4.0,97,0.00,,,0.26,weatherlink.com 1.10,2013-03-05 17:33:00,
2013-03-05 12:48:00,49.3,48.0,30.18,WSW,256,2.0,4.0,96,0.00,,,0.26,weatherlink.com 1.10,2013-03-05 17:48:00,
2013-03-05 13:03:00,49.9,49.0,30.16,SW,225,5.0,8.0,95,0.00,,,0.26,weatherlink.com 1.10,2013-03-05 18:03:00,
2013-03-05 13:18:00,50.7,49.0,30.14,WSW,242,11.0,12.0,93,0.00,,,0.26,weatherlink.com 1.10,2013-03-05 18:18:00,
2013-03-05 13:33:00,51.0,49.0,30.12,West,259,8.0,15.0,92,0.00,,,0.26,weatherlink.com 1.10,2013-03-05 18:33:00,
2013-03-05 13:48:00,51.1,49.0,30.11,West,262,11.0,16.0,92,0.00,,,0.26,weatherlink.com 1.10,2013-03-05 18:48:00,
2013-03-05 14:18:00,50.9,49.0,30.08,West,266,14.0,14.0,93,0.00,,,0.26,weatherlink.com 1.10,2013-03-05 19:18:00,
2013-03-05 14:33:00,51.6,49.0,30.07,SW,229,9.0,14.0,92,0.00,,,0.26,weatherlink.com 1.10,2013-03-05 19:33:00,
2013-03-05 14:48:00,52.0,50.0,30.05,WSW,248,9.0,16.0,91,0.00,,,0.26,weatherlink.com 1.10,2013-03-05 19:48:00,
2013-03-05 15:03:00,51.8,49.0,30.05,SW,231,14.0,15.0,91,0.00,,,0.26,weatherlink.com 1.10,2013-03-05 20:03:00,
2013-03-05 15:18:00,51.5,49.0,30.04,SW,224,10.0,15.0,92,0.00,,,0.26,weatherlink.com 1.10,2013-03-05 20:18:00,
2013-03-05 15:33:00,51.3,49.0,30.02,WSW,249,13.0,16.0,92,0.00,,,0.26,weatherlink.com 1.10,2013-03-05 20:33:00,
2013-03-05 15:48:00,51.3,49.0,29.99,West,269,10.0,19.0,93,0.01,,,0.27,weatherlink.com 1.10,2013-03-05 20:48:00,
2013-03-05 16:03:00,51.5,49.0,29.97,SW,226,10.0,19.0,92,0.02,,,0.28,weatherlink.com 1.10,2013-03-05 21:03:00,
2013-03-05 16:18:00,51.9,49.0,29.95,WSW,250,10.0,19.0,91,0.05,,,0.31,weatherlink.com 1.10,2013-03-05 21:18:00,
2013-03-05 16:33:00,51.6,49.0,29.96,SW,228,7.0,17.0,92,0.08,,,0.34,weatherlink.com 1.10,2013-03-05 21:33:00,
2013-03-05 16:48:00,51.3,49.0,29.98,WSW,252,11.0,15.0,93,0.12,,,0.39,weatherlink.com 1.10,2013-03-05 21:48:00,
2013-03-05 17:03:00,50.4,49.0,30.00,SW,233,10.0,19.0,95,0.24,,,0.52,weatherlink.com 1.10,2013-03-05 22:03:00,
2013-03-05 17:18:00,49.2,48.0,30.01,WSW,252,6.0,14.0,95,0.23,,,0.54,weatherlink.com 1.10,2013-03-05 22:18:00,
2013-03-05 17:33:00,48.5,47.0,30.02,WSW,258,6.0,14.0,95,0.21,,,0.56,weatherlink.com 1.10,2013-03-05 22:33:00,
2013-03-05 17:48:00,48.3,47.0,30.02,WSW,244,6.0,7.0,96,0.17,,,0.56,weatherlink.com 1.10,2013-03-05 22:48:00,
2013-03-05 18:04:00,48.3,47.0,30.02,West,267,6.0,12.0,96,0.04,,,0.56,weatherlink.com 1.10,2013-03-05 23:04:00,
2013-03-05 18:19:00,48.1,47.0,30.02,WSW,257,0.0,13.0,95,0.02,,,0.56,weatherlink.com 1.10,2013-03-05 23:19:00,
2013-03-05 18:34:00,48.1,46.0,30.03,WSW,252,8.0,16.0,93,0.00,,,0.56,weatherlink.com 1.10,2013-03-05 23:34:00,
2013-03-05 18:49:00,47.7,45.0,30.03,WSW,242,7.0,15.0,90,0.00,,,0.56,weatherlink.com 1.10,2013-03-05 23:49:00,
2013-03-05 19:04:00,47.4,44.0,30.04,WSW,238,10.0,19.0,87,0.00,,,0.56,weatherlink.com 1.10,2013-03-06 00:04:00,
2013-03-05 19:19:00,46.8,44.0,30.04,West,259,0.0,14.0,89,0.00,,,0.56,weatherlink.com 1.10,2013-03-06 00:19:00,
2013-03-05 19:34:00,45.7,42.0,30.07,WSW,256,1.0,10.0,87,0.00,,,0.56,weatherlink.com 1.10,2013-03-06 00:34:00,
2013-03-05 19:49:00,44.3,40.0,30.07,West,259,6.0,12.0,85,0.00,,,0.56,weatherlink.com 1.10,2013-03-06 00:49:00,
2013-03-05 20:04:00,43.4,39.0,30.07,West,260,0.0,7.0,84,0.00,,,0.56,weatherlink.com 1.10,2013-03-06 01:04:00,
2013-03-05 20:19:00,42.5,38.0,30.07,WSW,252,8.0,8.0,85,0.00,,,0.56,weatherlink.com 1.10,2013-03-06 01:19:00,
2013-03-05 20:34:00,41.1,37.0,30.09,WSW,249,12.0,17.0,85,0.00,,,0.56,weatherlink.com 1.10,2013-03-06 01:34:00,
2013-03-05 20:49:00,38.1,36.0,30.09,West,273,4.0,18.0,91,0.01,,,0.57,weatherlink.com 1.10,2013-03-06 01:49:00,
2013-03-05 21:04:00,36.5,34.0,30.12,West,259,1.0,14.0,91,0.01,,,0.57,weatherlink.com 1.10,2013-03-06 02:04:00,
2013-03-05 21:19:00,34.8,32.0,30.13,West,264,4.0,17.0,90,0.01,,,0.57,weatherlink.com 1.10,2013-03-06 02:19:00,
2013-03-05 21:34:00,33.6,31.0,30.14,West,275,8.0,13.0,90,0.01,,,0.57,weatherlink.com 1.10,2013-03-06 02:34:00,
2013-03-05 21:49:00,32.6,30.0,30.14,West,262,5.0,24.0,90,0.00,,,0.57,weatherlink.com 1.10,2013-03-06 02:49:00,
2013-03-05 22:04:00,32.1,29.0,30.14,SW,233,9.0,22.0,89,0.00,,,0.57,weatherlink.com 1.10,2013-03-06 03:04:00,
2013-03-05 22:19:00,31.7,29.0,30.12,SW,236,17.0,19.0,88,0.00,,,0.57,weatherlink.com 1.10,2013-03-06 03:19:00,
2013-03-05 22:34:00,31.4,29.0,30.12,WSW,248,0.0,18.0,89,0.00,,,0.57,weatherlink.com 1.10,2013-03-06 03:34:00,
2013-03-05 22:49:00,31.0,29.0,30.12,NW,316,1.0,13.0,90,0.00,,,0.57,weatherlink.com 1.10,2013-03-06 03:49:00,
2013-03-05 23:04:00,30.6,28.0,30.12,West,266,11.0,18.0,89,0.00,,,0.57,weatherlink.com 1.10,2013-03-06 04:04:00,
2013-03-05 23:19:00,30.4,28.0,30.12,SW,235,4.0,15.0,90,0.00,,,0.57,weatherlink.com 1.10,2013-03-06 04:19:00,
2013-03-05 23:34:00,30.1,28.0,30.13,West,268,0.0,16.0,90,0.00,,,0.57,weatherlink.com 1.10,2013-03-06 04:34:00,
2013-03-05 23:49:00,29.8,26.0,30.12,West,264,8.0,20.0,87,0.00,,,0.57,weatherlink.com 1.10,2013-03-06 04:49:00,